Powrót do katalogu

STARLINK-5524

AktywnyŁącznośćVLEO
NORAD 56474·PAYLOAD·🇺🇸 United States

Wystrzelony May 10, 2023 z Vandenberg Space Force Base

Loading…

Następne Przeloty (najbliższe 24 godziny)

TLE

ŚwieżeSource: CelesTrak SupGP

Epoka: Sep 14, 2026, 14:57 UTC

1 56474C 23064AC  26257.62340278  .00527070  00000+0  43040-1 0  2574
2 56474  70.0009   8.2608 0003120 274.5285 151.1257 14.99065921    16

Śledź STARLINK-5524 w czasie rzeczywistym z AllMySat

Download on the App Store